LU8FCJ-5 Weather Reports


time (UTC)temp
C
wind
direction
speed
KPH
gust
KPH
rain 1hr
cm
rain 24hr
cm
rain mn
cm
humidity
%
barometer
mb
20260507191537 15 203 37.0 49.9 0.00 0.00 0.00 60 1004.3
20260507191031 15 225 33.8 48.3 0.00 0.00 0.00 60 1004.5
20260507190516 15 225 33.8 48.3 0.00 0.00 0.00 60 1005.0
20260507190018 15 203 27.4 46.7 0.00 0.00 0.00 61 1005.1
20260507185501 15 203 25.7 46.7 0.00 0.00 0.00 61 1004.9
20260507184945 15 203 27.4 48.3 0.00 0.00 0.00 61 1004.9
20260507184435 15 203 30.6 48.3 0.00 0.00 0.00 61 1004.8
20260507183925 15 225 33.8 43.5 0.00 0.00 0.00 61 1004.7
20260507183415 15 203 30.6 43.5 0.00 0.00 0.00 60 1005.2
20260507182905 15 203 32.2 43.5 0.00 0.00 0.00 60 1005.3
20260507182355 15 225 24.1 40.2 0.00 0.00 0.00 59 1005.4
20260507181841 15 225 32.2 43.5 0.00 0.00 0.00 59 1005.5
20260507181331 15 203 30.6 46.7 0.00 0.00 0.00 59 1005.5
20260507180825 15 225 35.4 49.9 0.00 0.00 0.00 58 1005.6
20260507180314 15 225 35.4 49.9 0.00 0.00 0.00 58 1005.7
20260507175804 15 203 40.2 51.5 0.00 0.00 0.00 57 1005.7
20260507175254 16 203 37.0 51.5 0.00 0.00 0.00 56 1005.8
20260507174744 16 248 35.4 49.9 0.00 0.00 0.00 55 1005.6
20260507174234 16 225 33.8 43.5 0.00 0.00 0.00 54 1005.9
20260507173724 16 225 30.6 46.7 0.00 0.00 0.00 55 1005.7
20260507173214 16 203 33.8 48.3 0.00 0.00 0.00 56 1005.9
20260507172703 16 203 37.0 48.3 0.00 0.00 0.00 56 1005.8
20260507172153 16 203 27.4 46.7 0.00 0.00 0.00 56 1006.0
20260507171656 16 225 33.8 49.9 0.00 0.00 0.00 55 1006.2
20260507171134 16 225 33.8 51.5 0.00 0.00 0.00 56 1006.2
20260507170623 16 203 43.5 54.7 0.00 0.00 0.00 54 1006.0
20260507170115 16 248 38.6 54.7 0.00 0.00 0.00 55 1005.8
20260507165602 16 225 41.8 54.7 0.00 0.00 0.00 55 1005.8
20260507165052 16 225 33.8 51.5 0.00 0.00 0.00 55 1005.8
20260507164542 15 225 37.0 51.5 0.00 0.00 0.00 56 1005.6
20260507164038 16 203 32.2 49.9 0.00 0.00 0.00 56 1005.8
20260507163522 16 225 25.7 49.9 0.00 0.00 0.00 56 1005.6
20260507163012 15 203 37.0 51.5 0.00 0.00 0.00 56 1005.8
20260507162501 15 248 43.5 54.7 0.00 0.00 0.00 56 1006.0
20260507161951 15 225 37.0 54.7 0.00 0.00 0.00 56 1005.8
20260507161442 15 225 38.6 54.7 0.00 0.00 0.00 55 1005.8
20260507160931 16 248 43.5 54.7 0.00 0.00 0.00 55 1005.5
20260507160426 16 203 38.6 49.9 0.00 0.00 0.00 55 1005.8
20260507155911 16 225 37.0 54.7 0.00 0.00 0.00 56 1005.8
20260507155401 16 203 38.6 54.7 0.00 0.00 0.00 55 1005.7
20260507154851 16 225 37.0 54.7 0.00 0.00 0.00 55 1005.9
20260507154340 16 225 37.0 48.3 0.00 0.00 0.00 57 1006.3
20260507153830 15 225 32.2 49.9 0.00 0.00 0.00 58 1006.0
20260507153321 15 225 38.6 51.5 0.00 0.00 0.00 58 1006.0
20260507152810 15 225 35.4 51.5 0.00 0.00 0.00 59 1006.2
20260507152300 15 225 37.0 49.9 0.00 0.00 0.00 59 1006.4
20260507151750 15 225 33.8 49.9 0.00 0.00 0.00 59 1006.1
20260507151239 14 225 37.0 49.9 0.00 0.00 0.00 59 1005.9
20260507150730 15 225 37.0 49.9 0.00 0.00 0.00 59 1005.7
20260507150219 14 225 33.8 51.5 0.00 0.00 0.00 58 1005.8
20260507145709 14 225 35.4 51.5 0.00 0.00 0.00 58 1005.6
20260507145200 15 225 33.8 49.9 0.00 0.00 0.00 59 1005.6
20260507144649 14 225 37.0 48.3 0.00 0.00 0.00 59 1006.0
20260507144138 14 225 30.6 43.5 0.00 0.00 0.00 60 1006.0
20260507143629 14 225 33.8 43.5 0.00 0.00 0.00 60 1006.2
20260507143119 14 225 27.4 43.5 0.00 0.00 0.00 60 1006.3
20260507142840 14 225 33.8 46.7 0.00 0.00 0.00 60 1006.5
20260507142614 14 225 33.8 46.7 0.00 0.00 0.00 60 1006.5
20260507142058 14 203 30.6 46.7 0.00 0.00 0.00 60 1006.3
20260507141548 14 225 30.6 46.7 0.00 0.00 0.00 61 1006.3
20260507141038 13 225 33.8 48.3 0.00 0.00 0.00 61 1006.1
20260507140528 13 225 29.0 49.9 0.00 0.00 0.00 61 1006.3
20260507140018 13 203 35.4 49.9 0.00 0.00 0.00 61 1006.3
20260507135513 13 248 29.0 46.7 0.00 0.00 0.00 61 1006.2
20260507134957 13 203 29.0 48.3 0.00 0.00 0.00 61 1005.9
20260507134447 13 225 37.0 54.7 0.00 0.00 0.00 61 1005.7
20260507133937 13 225 33.8 54.7 0.00 0.00 0.00 61 1005.7
20260507133427 13 225 37.0 49.9 0.00 0.00 0.00 60 1005.2
20260507132919 14 225 33.8 49.9 0.00 0.00 0.00 60 1004.8
20260507132406 14 225 35.4 48.3 0.00 0.00 0.00 60 1005.0
20260507131856 14 203 40.2 51.5 0.00 0.00 0.00 60 1004.3
20260507131346 14 225 37.0 51.5 0.00 0.00 0.00 60 1004.2
20260507130849 14 225 33.8 51.5 0.00 0.00 0.00 60 1004.8
20260507130326 14 225 32.2 49.9 0.00 0.00 0.00 62 1004.3
20260507125815 13 225 41.8 49.9 0.00 0.00 0.00 61 1004.8
20260507125307 13 225 35.4 49.9 0.00 0.00 0.00 62 1004.7
20260507124755 13 248 33.8 54.7 0.00 0.00 0.00 63 1005.0
20260507124246 13 225 33.8 54.7 0.00 0.00 0.00 63 1004.8
20260507123735 13 225 29.0 46.7 0.00 0.00 0.00 64 1004.7
20260507123226 13 225 33.8 46.7 0.00 0.00 0.00 65 1004.8
20260507122716 13 225 33.8 49.9 0.00 0.00 0.00 65 1004.3
20260507122205 13 248 30.6 49.9 0.00 0.00 0.00 66 1004.5
20260507121655 13 225 33.8 43.5 0.00 0.00 0.00 66 1004.3
20260507121145 13 203 29.0 40.2 0.00 0.00 0.00 67 1004.4
20260507120635 13 225 30.6 40.2 0.00 0.00 0.00 67 1004.2
20260507120128 13 225 29.0 40.2 0.00 0.00 0.00 67 1004.4
20260507115614 13 225 25.7 38.6 0.00 0.00 0.00 67 1004.3
20260507115106 13 225 32.2 37.0 0.00 0.00 0.00 66 1004.5
20260507114554 13 225 27.4 37.0 0.00 0.00 0.00 67 1004.5
20260507114043 13 225 22.5 29.0 0.00 0.00 0.00 67 1005.1
20260507113534 13 248 24.1 29.0 0.00 0.00 0.00 66 1005.4
20260507113033 13 225 22.5 27.4 0.00 0.00 0.00 66 1005.1
20260507112519 13 203 17.7 37.0 0.00 0.00 0.00 66 1005.6
20260507112004 13 203 20.9 37.0 0.00 0.00 0.00 66 1005.2
20260507111454 13 203 24.1 33.8 0.00 0.00 0.00 66 1005.1
20260507110943 13 203 24.1 37.0 0.00 0.00 0.00 66 1004.6
20260507110432 13 203 29.0 37.0 0.00 0.00 0.00 66 1005.0
20260507105924 13 203 24.1 37.0 0.00 0.00 0.00 67 1005.0
20260507105412 14 180 27.4 37.0 0.00 0.00 0.00 66 1005.3
20260507104902 14 180 24.1 37.0 0.00 0.00 0.00 65 1005.6
20260507104352 14 203 27.4 40.2 0.00 0.00 0.00 65 1005.5
20260507103842 14 203 24.1 40.2 0.00 0.00 0.00 65 1006.0
20260507103332 14 203 30.6 38.6 0.00 0.00 0.00 64 1005.7
20260507102823 14 203 27.4 37.0 0.00 0.00 0.00 65 1005.5
20260507102312 14 203 17.7 35.4 0.00 0.00 0.00 65 1005.6
20260507101801 14 203 17.7 35.4 0.00 0.00 0.00 65 1005.5
20260507101253 14 203 27.4 37.0 0.00 0.00 0.00 65 1005.5
20260507100741 15 203 27.4 37.0 0.00 0.00 0.00 64 1005.2
20260507100231 14 203 16.1 37.0 0.00 0.00 0.00 65 1005.4
20260507095722 15 203 27.4 37.0 0.00 0.00 0.00 64 1005.8
20260507095211 15 203 22.5 43.5 0.00 0.00 0.00 65 1006.2
20260507094702 15 225 27.4 43.5 0.00 0.00 0.00 63 1005.8
20260507094151 15 203 27.4 43.5 0.00 0.00 0.00 63 1005.7
20260507093641 15 203 29.0 43.5 0.00 0.00 0.00 64 1005.5
20260507093143 15 225 27.4 46.7 0.00 0.00 0.00 64 1005.3
20260507092622 15 225 24.1 46.7 0.00 0.00 0.00 65 1005.4
20260507092110 15 203 27.4 38.6 0.00 0.00 0.00 66 1005.2
20260507091613 15 225 27.4 38.6 0.00 0.00 0.00 66 1005.0
20260507091049 15 180 27.4 37.0 0.00 0.00 0.00 68 1005.1
20260507090552 15 203 27.4 37.0 0.00 0.00 0.00 69 1005.5
20260507090030 15 203 24.1 35.4 0.00 0.00 0.00 71 1005.3
20260507085520 15 203 24.1 38.6 0.00 0.00 0.00 72 1005.5
20260507085009 15 203 27.4 38.6 0.00 0.00 0.00 73 1005.7
20260507084458 15 180 27.4 37.0 0.00 0.00 0.00 74 1005.4
20260507083948 16 225 27.4 43.5 0.00 0.00 0.00 75 1005.4
20260507083438 16 203 29.0 43.5 0.00 0.00 0.00 76 1005.3
20260507082928 16 203 29.0 48.3 0.00 0.00 0.00 76 1005.1
20260507082422 16 203 27.4 51.5 0.00 0.00 0.00 77 1004.9
20260507081909 16 203 38.6 54.7 0.00 0.00 0.00 78 1005.1
20260507081358 16 203 35.4 54.7 0.00 0.00 0.00 78 1005.1
20260507080848 16 203 37.0 54.7 0.00 0.00 0.00 79 1005.2
20260507080337 16 203 30.6 38.6 0.00 0.00 0.00 85 1005.3
20260507075828 16 203 24.1 37.0 0.00 0.00 0.00 88 1005.1
20260507075324 16 225 25.7 37.0 0.00 0.00 0.00 89 1005.1
20260507074807 17 225 24.1 37.0 0.00 0.00 0.00 91 1004.9
20260507074258 17 203 24.1 37.0 0.00 0.00 0.00 92 1005.0
20260507073747 17 203 17.7 32.2 0.00 0.00 0.00 92 1005.0
20260507073237 17 248 17.7 25.7 0.00 0.00 0.00 92 1005.1
20260507072727 16 203 17.7 22.5 0.00 0.00 0.00 93 1005.3
20260507072221 16 225 12.9 20.9 0.00 0.00 0.00 93 1005.3
20260507071720 16 225 11.3 17.7 0.00 0.00 0.00 93 1005.6
20260507071157 16 203 11.3 17.7 0.00 0.00 0.00 93 1005.4
20260507070646 16 203 12.9 17.7 0.00 0.00 0.00 93 1005.3
20260507070136 16 203 11.3 17.7 0.00 0.00 0.00 93 1004.8
20260507065635 16 203 9.7 17.7 0.00 0.00 0.00 93 1004.6
20260507065129 16 225 12.9 17.7 0.00 0.00 0.00 93 1004.1
20260507064605 16 203 9.7 17.7 0.00 0.00 0.00 93 1004.1
20260507064055 16 203 11.3 20.9 0.00 0.00 0.00 93 1003.9
20260507063557 16 203 9.7 20.9 0.00 0.00 0.00 92 1004.1
20260507063037 16 203 14.5 20.9 0.00 0.00 0.00 93 1003.8
20260507062525 16 203 14.5 20.9 0.00 0.00 0.00 92 1004.0
20260507062028 16 203 14.5 22.5 0.00 0.00 0.00 92 1003.7
20260507061504 16 203 12.9 22.5 0.00 0.00 0.00 92 1003.9
20260507060954 16 203 12.9 17.7 0.00 0.00 0.00 92 1003.9
20260507060445 16 203 14.5 17.7 0.00 0.00 0.00 92 1003.9
20260507055934 16 203 11.3 12.9 0.00 0.00 0.00 92 1003.8
20260507055424 16 180 8.0 12.9 0.00 0.00 0.00 92 1003.6
20260507054915 16 203 6.4 12.9 0.00 0.00 0.00 91 1003.7
20260507054403 16 203 6.4 12.9 0.00 0.00 0.00 91 1003.5
20260507053854 16 203 6.4 12.9 0.00 0.00 0.00 90 1003.3
20260507053343 17 203 9.7 14.5 0.00 0.00 0.00 89 1003.3
20260507052834 17 203 8.0 22.5 0.00 0.00 0.00 89 1003.4
20260507052324 17 203 11.3 22.5 0.00 0.00 0.00 89 1002.8
20260507051813 17 203 14.5 20.9 0.00 0.00 0.00 88 1002.6
20260507051303 17 203 12.9 17.7 0.00 0.00 0.00 88 1002.2
20260507050753 17 225 12.9 20.9 0.00 0.00 0.00 88 1002.6
20260507050243 17 225 14.5 20.9 0.00 0.00 0.00 88 1002.0
20260507045732 17 203 16.1 22.5 0.00 0.00 0.00 88 1001.7
20260507045223 18 225 14.5 22.5 0.00 0.00 0.00 87 1001.8
20260507044712 18 225 12.9 22.5 0.00 0.00 0.00 86 1002.0
20260507044203 18 248 14.5 22.5 0.00 0.00 0.00 87 1002.2
20260507043652 18 270 12.9 22.5 0.00 0.00 0.00 86 1002.1
20260507043142 18 248 12.9 17.7 0.00 0.00 0.00 87 1001.9
20260507042632 18 248 6.4 9.7 0.00 0.00 0.00 88 1002.2
20260507042122 18 225 4.8 9.7 0.00 0.00 0.00 87 1002.6
20260507041615 18 248 3.2 6.4 0.00 0.00 0.00 86 1002.9
20260507041102 18 248 3.2 6.4 0.00 0.00 0.00 85 1003.5
20260507040552 19 225 3.2 6.4 0.00 0.00 0.00 83 1003.3
20260507040104 19 180 3.2 6.4 0.00 0.00 0.00 83 1003.7
20260507035531 19 225 0.0 0.0 0.00 0.00 0.00 84 1004.1
20260507035024 19 225 0.0 3.2 0.00 0.00 0.00 83 1004.0
20260507034515 20 158 0.0 6.4 0.00 0.00 0.00 83 1003.8
20260507034001 20 158 1.6 6.4 0.00 0.00 0.00 83 1003.5
20260507033451 20 158 3.2 11.3 0.00 0.00 0.00 83 1003.0
20260507032941 20 180 3.2 14.5 0.00 0.00 0.00 83 1003.3
20260507032430 20 203 8.0 17.7 0.00 0.00 0.00 83 1002.3
20260507031920 20 180 12.9 17.7 0.00 0.00 0.00 83 1001.7
20260507031416 20 203 9.7 20.9 0.00 0.00 0.00 82 1003.0
20260507030859 20 203 9.7 29.0 0.00 0.00 0.00 82 1002.7
20260507030349 20 203 17.7 29.0 0.00 0.00 0.00 82 1002.5
20260507025839 20 203 24.1 29.0 0.00 0.00 0.00 81 1001.8
20260507025329 20 225 19.3 29.0 0.00 0.00 0.00 82 1001.7
20260507024819 21 203 20.9 29.0 0.00 0.00 0.00 84 1000.8
20260507024309 21 203 22.5 32.2 0.00 0.00 0.00 83 1000.9
20260507023759 21 225 22.5 32.2 0.00 0.00 0.00 86 1002.0
20260507023248 21 225 24.1 29.0 0.00 0.00 0.00 87 1001.9
20260506222813 24 248 6.4 9.7 0.00 0.00 0.00 81 1001.1
20260506222305 24 270 4.8 6.4 0.00 0.00 0.00 82 1001.0
20260506221753 24 270 3.2 3.2 0.00 0.00 0.00 82 1000.9
20260506221242 24 270 3.2 6.4 0.00 0.00 0.00 81 1000.9
20260506220732 24 270 3.2 6.4 0.00 0.00 0.00 81 1000.9
20260506220222 24 293 3.2 6.4 0.00 0.00 0.00 81 1000.8
20260506215711 25 270 4.8 6.4 0.00 0.00 0.00 80 1000.8
20260506215201 25 270 4.8 6.4 0.00 0.00 0.00 80 1000.7
20260506214652 25 270 6.4 9.7 0.00 0.00 0.00 79 1000.8
20260506214142 25 248 4.8 11.3 0.00 0.00 0.00 78 1000.7
20260506213123 26 248 6.4 9.7 0.00 0.00 0.00 78 1000.7
20260506212612 26 248 4.8 6.4 0.00 0.00 0.00 78 1000.6
20260506212100 26 270 4.8 6.4 0.00 0.00 0.00 77 1000.8
20260506211551 26 248 3.2 6.4 0.00 0.00 0.00 76 1000.9
20260506211040 26 270 3.2 6.4 0.00 0.00 0.00 76 1000.6
20260506210530 26 248 3.2 6.4 0.00 0.00 0.00 75 1000.8
20260506210025 27 248 3.2 6.4 0.00 0.00 0.00 74 1000.6
20260506205510 27 270 3.2 6.4 0.00 0.00 0.00 73 1000.4
20260506205000 27 270 3.2 9.7 0.00 0.00 0.00 72 1000.3
20260506204450 27 270 4.8 9.7 0.00 0.00 0.00 72 1000.4
20260506203940 28 270 4.8 9.7 0.00 0.00 0.00 72 1000.2
20260506203429 28 293 4.8 9.7 0.00 0.00 0.00 71 1000.1
20260506202933 28 293 4.8 9.7 0.00 0.00 0.00 71 1000.0
20260506202410 28 293 4.8 9.7 0.00 0.00 0.00 70 1000.2
20260506201900 28 293 3.2 12.9 0.00 0.00 0.00 70 1000.3
20260506201349 28 293 6.4 12.9 0.00 0.00 0.00 70 1000.3
20260506200838 28 293 6.4 14.5 0.00 0.00 0.00 70 1000.3
20260506200329 28 315 6.4 17.7 0.00 0.00 0.00 69 1000.0
20260506195819 28 315 9.7 17.7 0.00 0.00 0.00 69 1000.2
20260506195308 28 293 12.9 14.5 0.00 0.00 0.00 69 1000.2
20260506194759 28 338 9.7 12.9 0.00 0.00 0.00 69 1000.1
20260506194251 29 338 8.0 14.5 0.00 0.00 0.00 68 1000.7
20260506193738 29 315 6.4 14.5 0.00 0.00 0.00 68 1000.4
20260506193228 29 0 11.3 14.5 0.00 0.00 0.00 68 1000.4
20260506192718 29 315 6.4 20.9 0.00 0.00 0.00 69 1000.7
20260506192209 29 315 9.7 22.5 0.00 0.00 0.00 68 1000.8